Oberpfaffenhofen Airport EDMO

Flugplatz Daten

Name: Oberpfaffenhofen Airport

Ident: EDMO

Lat: 48,08140182

Long: 11,28310013

Platzhöhe: 1947 ft

IataCode: OBF

City:

Metar

2022/08/10 20:20
EDMO 102020Z AUTO 05006KT 9999 // NCD 19/07 Q1023

Taf

Gewünschte Webcam nicht vorhanden? Dann fügen Sie eine hinzu. Sie wird dann so schnell wie möglich freigeschaltet
Url: Title: